This is the latest recevied weather packets stored in our database for station/object DL4NBA-1. If no packets are shown the sender has not sent any weather packets the latest 10 day(s).
| Time | Temp. | Humidity | Pressure | Rain* | Wind** | Luminosity | Snow |
|---|---|---|---|---|---|---|---|
| 1777583925 | 9.44° C | - | - | 0 mm | 2.68 m/s, 65° | - | - |
| 1777583627 | 9.44° C | - | - | 0 mm | 3.58 m/s, 66° | - | - |
| 1777583324 | 9.44° C | - | - | 0 mm | 3.58 m/s, 77° | - | - |
| 1777583026 | 9.44° C | - | - | 0 mm | 3.13 m/s, 70° | - | - |
| 1777582727 | 9.44° C | - | - | 0 mm | 3.58 m/s, 66° | - | - |
| 1777582429 | 8.89° C | - | - | 0 mm | 2.68 m/s, 93° | - | - |
| 1777582130 | 7.78° C | - | - | 0 mm | 1.79 m/s, 80° | - | - |
| 1777581829 | 7.78° C | - | - | 0 mm | 1.34 m/s, 45° | - | - |
| 1777581530 | 8.33° C | - | - | 0 mm | 2.24 m/s, 53° | - | - |
| 1777581232 | 8.33° C | - | - | 0 mm | 2.68 m/s, 55° | - | - |
| 1777580933 | 8.89° C | - | - | 0 mm | 2.24 m/s, 58° | - | - |
| 1777580634 | 8.33° C | - | - | 0 mm | 2.24 m/s, 60° | - | - |
| 1777580333 | 8.33° C | - | - | 0 mm | 2.24 m/s, 63° | - | - |
| 1777579735 | 7.78° C | - | - | 0 mm | 2.24 m/s, 51° | - | - |
| 1777579436 | 9.44° C | - | - | 0 mm | 2.24 m/s, 52° | - | - |
| 1777579138 | 9.44° C | - | - | 0 mm | 2.24 m/s, 52° | - | - |
| 1777578834 | 9.44° C | - | - | 0 mm | 2.24 m/s, 63° | - | - |
| 1777578535 | 10° C | - | - | 0 mm | 2.24 m/s, 73° | - | - |
| 1777577936 | 11.11° C | - | - | 0 mm | 2.24 m/s, 113° | - | - |
| 1777577637 | 11.67° C | - | - | 0 mm | 3.13 m/s, 68° | - | - |
| 1777577336 | 11.11° C | - | - | 0 mm | 2.68 m/s, 63° | - | - |
| 1777577036 | 11.67° C | - | - | 0 mm | 2.68 m/s, 77° | - | - |
| 1777576737 | 12.22° C | - | - | 0 mm | 2.68 m/s, 66° | - | - |
| 1777576438 | 11.67° C | - | - | 0 mm | 4.02 m/s, 82° | - | - |
| 1777576137 | 11.67° C | - | - | 0 mm | 3.13 m/s, 72° | - | - |
* Rain latest hour (hover to see other rain measurements)
** Current wind speed in m/s (hover to see current wind gust speed)